User: anonymous   Login
Location: Unspecified
(43.4354°N, 0.0000°E)
Time: 13:03:36
(UTC+00:00)
Language:

Tiros 1 despin weight - Orbit

View from above orbital plane
View from above orbital plane
View from above satellite
View from above satellite

Ground track
Ground track

The orbit data is extracted from the following two-line orbital elements,

1   115U 60002D   19287.14551900  .00000106  00000-0  39686-4 0  9990
2   115  48.1682  23.3540 0035094 239.1936 120.5520 14.83489843176257
Epoch (UTC): 14 October 2019 03:29:32
Eccentricity: 0.0035094
inclination: 48.1682°
perigee height: 594 km
apogee height: 643 km
right ascension of ascending node: 23.3540°
argument of perigee: 239.1936°
revolutions per day: 14.83489843
mean anomaly at epoch: 120.5520°
orbit number at epoch: 17625

The dashed part of the orbit path shows where the satellite is in the earth's shadow,  

DLR